{"data":{"norad_id":58378,"epoch":"2026-05-24T21:04:32.445984Z","epoch_age_seconds":99760,"freshness":"FRESH","line1":"1 58378U 23178E   26144.87815331  .00000144  00000+0  16977-4 0  9997","line2":"2 58378  53.1604 354.6168 0000942  95.2194 264.8914 15.30191863141737","mean_motion":15.30191863,"eccentricity":9.42e-5,"inclination_deg":53.1604,"raan_deg":354.6168,"arg_perigee_deg":95.2194,"mean_anomaly_deg":264.8914,"bstar":1.6977e-5,"rev_number":14173,"period_min":94.105846124212,"perigee_km":474.59377708869,"apogee_km":475.88495319588,"semimajor_km":6853.3763651423,"source":"CELESTRAK","updated_at":"2026-05-25T13:38:18.612284Z"}}